Weather History for Monticello, KY

Change the Weather History Date:

Friday, October 11, 2013

  Actual Average Record
Temperature  
Mean Temperature 60 °F -  
Max Temperature 78 °F 71 °F 86 °F (2010)
Min Temperature 42 °F 46 °F 29 °F (2012)
Degree Days  
Heating Degree Days 5    
Growing Degree Days 10 (Base 50)    
Moisture  
Dew Point 51 °F    
Average Humidity 82    
Maximum Humidity 100    
Minimum Humidity 44    
Precipitation  
Precipitation 0.00 in - - ()
Sea Level Pressure  
Sea Level Pressure 30.09 in    
Wind  
Wind Speed 1 mph (NNW)    
Max Wind Speed 8 mph    
Max Gust Speed -    
Visibility 1 miles    
Events Fog    
Averages and records for this station are not official NWS values.
T = Trace of Precipitation, MM = Missing Value Source: NWS Daily Summary

Daily Weather History Graph

Daily Weather History Graph

Search for Another Location

Airport:

Trip Planner

Search our weather history database for the weather conditions in past years. The results will help you decide how hot, cold, wet, or windy it might be!

Date:

Astronomy

Oct. 11, 2013 Rise Set
Actual Time 6:43 AM CDT 6:07 PM CDT
Civil Twilight 6:17 AM CDT 6:33 PM CDT
Nautical Twilight 5:47 AM CDT 7:03 PM CDT
Astronomical Twilight 5:17 AM CDT 7:33 PM CDT
Moon 1:20 PM CDT (10/11) 11:56 PM CDT (10/11)
Length of Visible Light 12h 16m
Length of Day
11h 24m
Waxing Crescent, 47% of the Moon is Illuminated
Oct 11
Waxing Crescent
Oct 11
First Quarter
Oct 18
Full
Oct 26
Last Quarter
Nov 3
New

Hourly Weather History & Observations

Time (CDT) Temp. Dew Point Humidity Pressure Visibility Wind Dir Wind Speed Gust Speed Precip Events Conditions
12:19 AM 48.2 °F 48.2 °F 100% 30.09 in 0.8 mi Calm Calm - N/A   Clear
12:32 AM 48.2 °F 48.2 °F 100% 30.10 in 1.0 mi Calm Calm - N/A   Clear
12:56 AM 47.8 °F 47.8 °F 100% 30.10 in 1.2 mi Calm Calm - N/A   Clear
1:36 AM 46.4 °F 46.4 °F 100% 30.09 in 1.0 mi Calm Calm - N/A   Clear
1:56 AM 46.9 °F 46.9 °F 100% 30.09 in 1.5 mi Calm Calm - N/A   Clear
2:05 AM 46.4 °F 46.4 °F 100% 30.08 in 1.0 mi Calm Calm - N/A   Clear
2:21 AM 46.4 °F 46.4 °F 100% 30.08 in 1.5 mi Calm Calm - N/A   Clear
2:32 AM 46.4 °F 46.4 °F 100% 30.08 in 1.0 mi Calm Calm - N/A   Clear
2:34 AM 46.4 °F 46.4 °F 100% 30.08 in 0.5 mi Calm Calm - N/A Fog Fog
2:42 AM 46.4 °F 46.4 °F 100% 30.08 in 0.2 mi Calm Calm - N/A Fog Fog
2:56 AM 45.9 °F 45.9 °F 100% 30.09 in 0.8 mi Calm Calm - N/A   Clear
3:20 AM 48.2 °F 48.2 °F 100% 30.08 in 1.0 mi Calm Calm - N/A   Clear
3:56 AM 45.9 °F 45.9 °F 100% 30.10 in 1.2 mi Calm Calm - N/A   Clear
4:05 AM 46.4 °F 46.4 °F 100% 30.09 in 0.8 mi Calm Calm - N/A   Clear
4:15 AM 46.4 °F 46.4 °F 100% 30.10 in 0.5 mi Calm Calm - N/A Fog Fog
4:22 AM 44.6 °F 44.6 °F 100% 30.09 in 1.0 mi Calm Calm - N/A   Clear
4:39 AM 46.4 °F 46.4 °F 100% 30.09 in 0.5 mi Calm Calm - N/A Fog Fog
4:56 AM 45.0 °F 45.0 °F 100% 30.11 in 1.2 mi Calm Calm - N/A   Clear
5:01 AM 44.6 °F 44.6 °F 100% 30.10 in 0.8 mi Calm Calm - N/A   Clear
5:15 AM 44.6 °F 44.6 °F 100% 30.10 in 0.2 mi Calm Calm - N/A Fog Fog
5:56 AM 45.0 °F 45.0 °F 100% 30.12 in 0.5 mi Calm Calm - N/A Fog Fog
6:01 AM 44.6 °F 44.6 °F 100% 30.11 in 1.0 mi Calm Calm - N/A   Clear
6:19 AM 44.6 °F 44.6 °F 100% 30.12 in 0.5 mi Calm Calm - N/A Fog Fog
6:29 AM 44.6 °F 44.6 °F 100% 30.11 in 1.0 mi Calm Calm - N/A   Clear
6:33 AM 44.6 °F 44.6 °F 100% 30.11 in 1.5 mi Calm Calm - N/A   Clear
6:39 AM 42.8 °F 42.8 °F 100% 30.12 in 1.0 mi Calm Calm - N/A   Clear
6:47 AM 44.6 °F 44.6 °F 100% 30.12 in 0.5 mi Calm Calm - N/A Fog Fog
6:56 AM 43.9 °F 43.9 °F 100% 30.14 in 0.2 mi Calm Calm - N/A Fog Fog
7:22 AM 46.4 °F 46.4 °F 100% 30.12 in 0.5 mi Calm Calm - N/A Fog Fog
7:40 AM 48.2 °F 48.2 °F 100% 30.12 in 0.8 mi Calm Calm - N/A   Clear
7:56 AM 50.9 °F 50.0 °F 97% 30.15 in 0.8 mi Calm Calm - N/A   Clear
8:07 AM 51.8 °F 50.0 °F 94% 30.13 in 1.0 mi Calm Calm - N/A   Clear
8:36 AM 55.4 °F 53.6 °F 94% 30.14 in 1.5 mi Calm Calm - N/A   Clear
8:49 AM 57.2 °F 53.6 °F 88% 30.14 in 1.2 mi Calm Calm - N/A   Clear
8:56 AM 57.9 °F 52.9 °F 83% 30.16 in 1.2 mi Calm Calm - N/A   Haze
9:29 AM 60.8 °F 53.6 °F 77% 30.14 in 1.5 mi Calm Calm - N/A   Haze
9:56 AM 63.9 °F 54.9 °F 72% 30.15 in 1.5 mi Calm Calm - N/A   Haze
10:14 AM 66.2 °F 53.6 °F 64% 30.14 in 1.2 mi Variable 3.5 mph - N/A   Haze
10:21 AM 66.2 °F 53.6 °F 64% 30.14 in 1.8 mi Calm Calm - N/A   Haze
10:56 AM 68.9 °F 52.9 °F 57% 30.14 in 1.5 mi Calm Calm - N/A   Haze
11:44 AM 71.6 °F 53.6 °F 53% 30.12 in 2.0 mi Calm Calm - N/A   Haze
11:56 AM 72.9 °F 52.0 °F 48% 30.13 in 1.2 mi Calm Calm - N/A   Haze
12:12 PM 73.4 °F 51.8 °F 47% 30.11 in 1.8 mi Variable 3.5 mph - N/A   Haze
12:28 PM 73.4 °F 55.4 °F 53% 30.11 in 2.0 mi ENE 4.6 mph - N/A   Haze
12:47 PM 73.4 °F 53.6 °F 50% 30.10 in 1.2 mi Variable 3.5 mph - N/A   Haze
12:56 PM 75.9 °F 52.9 °F 45% 30.10 in 0.8 mi Variable 6.9 mph - N/A   Haze
1:03 PM 75.2 °F 53.6 °F 47% 30.09 in 1.2 mi Variable 3.5 mph - N/A   Haze
1:10 PM 75.2 °F 55.4 °F 50% 30.08 in 1.8 mi NNE 5.8 mph - N/A   Haze
1:21 PM 75.2 °F 53.6 °F 47% 30.08 in 1.0 mi North 8.1 mph - N/A   Haze
1:56 PM 75.9 °F 52.9 °F 45% 30.08 in 0.8 mi North 6.9 mph - N/A   Haze
2:03 PM 77.0 °F 53.6 °F 44% 30.07 in 0.5 mi North 5.8 mph - N/A   Haze
2:23 PM 77.0 °F 53.6 °F 44% 30.07 in 0.2 mi Variable 4.6 mph - N/A   Haze
2:39 PM 77.0 °F 53.6 °F 44% 30.06 in 0.5 mi North 3.5 mph - N/A   Haze
2:56 PM 77.0 °F 54.0 °F 45% 30.07 in 0.5 mi NNW 6.9 mph - N/A   Haze
3:56 PM 77.0 °F 55.9 °F 48% 30.06 in 0.5 mi Variable 3.5 mph - N/A   Haze
4:13 PM 78.8 °F 55.4 °F 44% 30.06 in 0.2 mi North 6.9 mph - N/A   Haze
4:38 PM 77.0 °F 55.4 °F 47% 30.06 in 0.5 mi Calm Calm - N/A   Haze
4:49 PM 75.2 °F 55.4 °F 50% 30.06 in 0.2 mi WNW 5.8 mph - N/A   Haze
4:56 PM 75.9 °F 54.9 °F 48% 30.06 in 0.5 mi West 3.5 mph - N/A   Haze
5:15 PM 75.2 °F 55.4 °F 50% 30.05 in 0.2 mi NW 3.5 mph - N/A   Haze
5:35 PM 73.4 °F 55.4 °F 53% 30.06 in 0.5 mi West 3.5 mph - N/A   Haze
5:56 PM 70.0 °F 57.9 °F 65% 30.07 in 0.2 mi West 3.5 mph - N/A   Haze
6:17 PM 64.4 °F 57.2 °F 77% 30.06 in 0.8 mi Calm Calm - N/A   Haze
6:28 PM 62.6 °F 57.2 °F 82% 30.06 in 1.2 mi Calm Calm - N/A   Haze
6:36 PM 62.6 °F 55.4 °F 77% 30.06 in 1.5 mi Calm Calm - N/A   Haze
6:56 PM 59.0 °F 54.9 °F 86% 30.08 in 1.2 mi Calm Calm - N/A   Clear
7:35 PM 57.2 °F 55.4 °F 94% 30.07 in 1.5 mi Calm Calm - N/A   Clear
7:43 PM 55.4 °F 53.6 °F 94% 30.07 in 1.2 mi Calm Calm - N/A   Clear
7:56 PM 54.9 °F 54.0 °F 97% 30.09 in 1.2 mi Calm Calm - N/A   Clear
8:35 PM 55.4 °F 53.6 °F 94% 30.08 in 1.0 mi Calm Calm - N/A   Clear
8:56 PM 52.9 °F 52.0 °F 97% 30.09 in 1.2 mi Calm Calm - N/A   Clear
9:30 PM 51.8 °F 51.8 °F 100% 30.07 in 1.0 mi Calm Calm - N/A   Clear
9:56 PM 52.0 °F 50.9 °F 96% 30.08 in 1.0 mi Calm Calm - N/A   Clear
10:10 PM 53.6 °F 53.6 °F 100% 30.07 in 0.8 mi Calm Calm - N/A   Clear
10:36 PM 51.8 °F 51.8 °F 100% 30.07 in 1.0 mi Calm Calm - N/A   Clear
10:56 PM 52.9 °F 52.9 °F 100% 30.08 in 0.8 mi Calm Calm - N/A   Clear
11:14 PM 51.8 °F 51.8 °F 100% 30.07 in 0.5 mi Calm Calm - N/A Fog Fog
11:19 PM 51.8 °F 51.8 °F 100% 30.07 in 1.0 mi Calm Calm - N/A   Clear
11:30 PM 51.8 °F 51.8 °F 100% 30.07 in 0.8 mi Calm Calm - N/A   Clear
11:56 PM 50.9 °F 50.9 °F 100% 30.08 in 0.8 mi Calm Calm - N/A   Clear